Overview Statistics Trail Chart Weather Telemetry Raw packets
 

This is the latest recevied weather packets stored in our database for station/object WP3OF-2. If no packets are shown the sender has not sent any weather packets the latest 10 day(s).

<< 31 32 33 34 35 36 37 >>
Time Temp. Humidity Pressure Rain* Wind** Luminosity Snow
1788350784 22.78° C 86% 1027.1 hPa 0 mm - 235 W/m² -
1788350480 22.22° C 85% 1027.4 hPa 0 mm - 206 W/m² -
1788350175 22.22° C 87% 1027.1 hPa 0 mm - 195 W/m² -
1788349871 22.78° C 86% 1027.1 hPa 0 mm - 172 W/m² -
1788349567 22.78° C 87% 1027.1 hPa 0 mm - 169 W/m² -
1788349266 22.22° C 85% 1026.7 hPa 0 mm - 128 W/m² -
1788348962 22.22° C 85% 1026.7 hPa 0 mm - 128 W/m² -
1788348656 22.22° C 85% 1026.7 hPa 0 mm - 81 W/m² -
1788348346 22.22° C 85% 1026.7 hPa 0 mm - 52 W/m² -
1788348042 22.22° C 85% 1026.7 hPa 0 mm - 52 W/m² -
1788347738 22.22° C 86% 1026.7 hPa 0 mm - 45 W/m² -
1788347433 22.22° C 86% 1026.7 hPa 0 mm - 45 W/m² -
1788347130 22.22° C 85% 1026.7 hPa 0 mm - 39 W/m² -
1788346826 22.22° C 85% 1026.7 hPa 0 mm - 38 W/m² -
1788346525 22.22° C 85% 1026.7 hPa 0 mm - 34 W/m² -
1788346219 21.67° C 86% 1026.7 hPa 0 mm - 30 W/m² -
1788345915 21.67° C 85% 1026.7 hPa 0 mm - 19 W/m² -
1788345609 21.67° C 85% 1026.7 hPa 0 mm - 19 W/m² -
1788345306 21.67° C 85% 1026.7 hPa 0 mm - 19 W/m² -
1788345001 21.67° C 85% 1026.3 hPa 0 mm - 15 W/m² -
1788344697 21.67° C 85% 1026.7 hPa 0 mm - 10 W/m² -
1788344394 21.67° C 85% 1026.3 hPa 0 mm - 3 W/m² -
1788344094 21.67° C 85% 1026 hPa 0 mm - 3 W/m² -
1788343792 21.67° C 86% 1026.3 hPa 0 mm - 0 W/m² -
1788343487 21.67° C 86% 1026.3 hPa 0 mm - 0 W/m² -

* Rain latest hour (hover to see other rain measurements)
** Current wind speed in m/s (hover to see current wind gust speed)